Location: LDNL
(36.4545°S, 141.6685°E)
Time: 12:55:48
(UTC+10:00)

Tiros 1 despin weight - Pass Details

Date: 15 August 2022
Orbit: 590 x 639 km, 48.2° (Epoch: 23 September)

Event Time Altitude Azimuth Distance (km) Brightness Sun altitude
Rises 22:47:04 0° 307° (NW) 2,867 - -56.6°
Reaches altitude 10° 22:49:20 10° 307° (NW) 1,976 - -56.9°
Maximum altitude 22:53:54 89° 33° (NNE) 632 - -57.7°
Drops below altitude 10° 22:58:35 10° 125° (SE) 2,025 - -58.4°
Sets 23:00:56 0° 125° (SE) 2,945 - -58.8°
